FW1524 Weather Reports


time (UTC)temp
F
wind
direction
speed
knots
gust
knots
rain 1hr
in
rain 24hr
in
rain mn
in
humidity
%
barometer
mb
20260904073008 69 236 0.0 0.0 0.00 0.39 0.00 1 1010.1
20260904071506 69 236 0.0 0.0 0.00 0.39 0.00 1 1010.0
20260904070002 70 236 0.0 0.0 0.00 0.39 0.00 1 1010.0
20260904064558 70 236 0.0 0.0 0.00 0.39 0.00 1 1009.9
20260904063101 70 236 0.0 0.0 0.00 0.39 0.00 1 1010.0
20260904061554 70 236 0.0 0.0 0.00 0.39 0.00 1 1010.0
20260904060050 70 236 0.0 0.0 0.00 0.39 0.00 1 1010.1
20260904054549 70 236 0.0 0.0 0.00 0.39 0.00 1 1010.2
20260904053055 71 236 0.0 0.0 0.05 0.41 0.00 1 1010.4
20260904051540 71 236 0.0 0.0 0.09 0.41 0.00 1 1010.5
20260904050036 71 236 0.0 0.0 0.32 0.41 0.00 1 1010.4
20260904044526 71 15 0.0 0.0 0.37 0.41 0.00 1 1010.8
20260904043032 72 13 0.0 0.0 0.32 0.55 0.36 1 1010.9
20260904041524 72 65 0.0 0.9 0.30 0.53 0.34 1 1010.5
20260904040019 72 196 0.0 0.0 0.07 0.30 0.11 1 1010.8
20260904034516 72 227 0.0 0.0 0.01 0.24 0.05 1 1010.4
20260904033011 72 227 0.0 0.0 0.00 0.36 0.04 1 1010.5
20260904031503 72 227 0.0 0.0 0.00 0.36 0.04 1 1010.5
20260904030059 73 227 0.0 0.0 0.00 0.36 0.04 1 1010.5
20260904024556 73 227 0.0 0.0 0.00 0.36 0.04 1 1010.5
20260904023051 73 227 0.0 0.0 0.00 0.93 0.04 1 1010.5
20260904021550 73 227 0.0 0.0 0.00 0.93 0.04 1 1010.7
20260904020048 73 227 0.0 0.0 0.00 0.93 0.04 1 1011.0
20260904014541 73 227 0.0 0.0 0.00 0.93 0.04 1 1011.0
20260904013044 73 227 0.0 0.0 0.00 0.96 0.04 1 1011.1
20260904011544 73 227 0.0 0.0 0.00 0.96 0.04 1 1011.0
20260904010034 73 225 0.0 0.0 0.00 0.96 0.04 1 1011.1
20260904004534 74 225 0.0 0.0 0.00 0.96 0.04 1 1011.0
20260904003029 74 225 0.0 0.0 0.00 0.96 0.04 1 1010.7
20260904001530 74 225 0.0 0.0 0.00 0.96 0.04 1 1010.7
20260904000024 75 225 0.0 0.0 0.00 0.96 0.04 1 1010.6
20260903234519 75 225 0.0 0.0 0.00 0.96 0.04 1 1010.7
20260903233015 76 225 0.0 0.0 0.00 0.96 0.04 1 1010.6
20260903231515 77 225 0.0 0.0 0.00 0.96 0.04 1 1010.6
20260903230015 78 225 0.0 0.0 0.00 0.96 0.04 1 1010.6
20260903224516 79 225 0.0 0.0 0.00 0.96 0.04 1 1010.4
20260903223002 80 225 0.0 0.0 0.00 0.96 0.04 1 1010.3
20260903220056 83 225 0.0 0.0 0.00 0.96 0.04 1 1010.0
20260903214606 84 225 0.0 0.0 0.00 0.96 0.04 1 1010.0
20260903213049 85 224 0.0 0.0 0.00 0.96 0.04 1 1010.3
20260903210045 85 325 0.0 0.0 0.00 0.96 0.04 1 1010.3
20260903204536 85 190 0.0 0.0 0.00 0.96 0.04 1 1010.5
20260903203031 85 196 0.0 0.9 0.00 0.96 0.04 1 1010.7
20260903200018 85 209 0.0 0.9 0.00 0.96 0.04 1 1010.9
20260903194518 85 181 0.0 0.0 0.00 0.96 0.04 1 1010.7
20260903193010 84 221 0.0 0.0 0.00 0.96 0.04 1 1010.9
20260903190009 83 217 0.0 0.0 0.00 0.96 0.04 1 1011.4
20260903184506 84 203 0.0 0.0 0.00 0.96 0.04 1 1011.5
20260903183002 84 229 0.0 0.0 0.00 0.96 0.04 1 1011.5
20260903180054 82 173 0.0 0.0 0.00 0.96 0.04 1 1011.8
20260903174550 81 206 0.0 0.0 0.00 0.96 0.04 1 1011.8
20260903173045 80 205 0.0 0.0 0.00 0.97 0.04 1 1011.9
20260903170046 79 211 0.0 0.0 0.00 0.97 0.04 1 1012.1
20260903164530 78 315 0.0 0.0 0.00 0.97 0.04 1 1012.1
20260903163026 77 185 0.0 0.0 0.00 0.98 0.04 1 1012.3
20260903160019 75 155 0.0 0.0 0.00 0.98 0.04 1 1012.7
20260903154512 73 238 0.0 0.0 0.00 0.98 0.04 1 1013.0
20260903153007 73 186 0.0 0.0 0.00 1.03 0.04 1 1013.1
20260903150013 72 183 0.0 0.0 0.00 1.03 0.04 1 1013.0
20260903144516 71 162 0.0 0.0 0.00 1.03 0.04 1 1012.9
20260903143004 71 230 0.0 0.0 0.00 1.66 0.04 1 1013.0
20260903140002 70 183 0.0 0.9 0.00 1.66 0.04 1 1013.1
20260903134603 70 194 0.0 0.0 0.00 1.66 0.04 1 1012.9
20260903133053 70 215 0.0 0.0 0.00 1.66 0.04 1 1012.8
20260903130042 69 228 0.0 0.0 0.00 1.66 0.04 1 1013.0
20260903124538 69 228 0.0 0.0 0.00 1.66 0.04 1 1013.0
20260903123034 68 228 0.0 0.0 0.00 1.66 0.04 1 1013.0
20260903120033 67 228 0.0 0.0 0.00 1.66 0.04 1 1012.6
20260903114528 66 227 0.0 0.0 0.00 1.66 0.04 1 1012.6
20260903113023 66 227 0.0 0.0 0.00 1.66 0.04 1 1012.6
20260903110058 66 227 0.0 0.0 0.00 1.66 0.04 1 1012.3
20260903104613 66 227 0.0 0.0 0.00 1.66 0.04 1 1012.5
20260903103102 66 227 0.0 0.0 0.01 1.66 0.04 1 1012.4
20260903101652 66 227 0.0 0.0 0.02 1.66 0.04 1 1012.5
20260903100047 66 227 0.0 0.0 0.02 1.66 0.04 1 1012.4
20260903094546 66 227 0.0 0.0 0.02 1.66 0.04 1 1012.5
20260903093047 66 227 0.0 0.0 0.02 1.66 0.04 1 1012.7
20260903091634 66 227 0.0 0.0 0.00 1.64 0.02 1 1012.7
20260903090038 66 227 0.0 0.0 0.00 1.64 0.02 1 1012.7
20260903084543 66 227 0.0 0.0 0.00 1.64 0.02 1 1012.5
20260903083030 66 227 0.0 0.0 0.00 1.64 0.02 1 1012.4
20260903081635 66 227 0.0 0.0 0.00 1.64 0.02 1 1012.7
20260903080015 66 227 0.0 0.0 0.00 1.64 0.02 1 1012.6
20260903074511 66 227 0.0 0.0 0.00 1.64 0.02 1 1012.5